[[{"header":{"parameterUnit":"m.s-1","parameterCategory":1,"la1":30.2991,"la2":30.254,"lo1":-89.0895,"lo2":-89.0444,"dy":0.0017,"dx":0.0017,"nx":28,"ny":28,"refTime":"2024-04-29T21:00:00:Z","depth":0,"parameterNumber":2,"parameterNumberName":"U-component_of_WINDS"},"data":[0,0,0,0,0,0,0,0,0,0,0,0,0,0,0,0,0,0,0,0,0,0,0,0,0,0,0,0,0,0,0,0,0,0,0,0,0,0,0,0,0,0,0,0,0,0,0,0,0,0,0,0,0,0,0,0,0,0,-2.2266,-2.2267,0,-2.2407,-2.2409,-2.241,-2.244,-2.2439,-2.2438,-2.2437,-2.2581,-2.2586,-2.2591,0,0,0,0,0,0,0,0,0,0,0,0,0,-2.2021,-2.2026,-2.2265,-2.2267,-2.2269,-2.2407,-2.2409,-2.2411,-2.244,-2.2439,-2.2437,-2.2436,-2.258,-2.2586,-2.2591,0,0,0,0,0,0,0,0,0,0,0,0,0,-2.2142,-2.2027,-2.2265,-2.23,-2.2305,-2.2407,-2.2409,-2.2411,-2.244,-2.2439,-2.2437,-2.2435,-2.2578,-2.2585,-2.2592,-2.2669,0,0,-2.2614,-2.2618,0,0,0,0,0,0,0,0,-2.2135,-2.215,-2.2293,-2.2298,-2.2303,-2.2404,-2.2376,-2.2498,-2.2441,-2.2389,-2.2436,-2.2435,-2.2524,-2.2535,-2.2565,-2.2676,-2.2682,-2.2615,-2.262,-2.2623,-2.2625,0,0,0,0,0,0,0,-2.2126,-2.2145,-2.2322,-2.2295,-2.2301,-2.2309,-2.2324,-2.2399,-2.2463,-2.2393,-2.2396,-2.2412,-2.2526,-2.2558,-2.2569,-2.2684,-2.2615,-2.2621,-2.2626,-2.2629,-2.2867,-2.2869,0,0,0,0,0,0,-2.2112,-2.2137,-2.2317,-2.2326,-2.2213,-2.2315,-2.2332,-2.2373,-2.2463,-2.2475,-2.2413,-2.2413,-2.2547,-2.2561,-2.2574,-2.2671,-2.2623,-2.2629,-2.2634,-2.2865,-2.2867,-2.2869,0,0,0,0,0,0,-2.2106,-2.2127,-2.2311,-2.2232,-2.2256,-2.2321,-2.2367,-2.2377,-2.2409,-2.2478,-2.249,-2.2434,-2.2546,-2.2564,-2.2646,-2.2676,-2.2633,-2.2639,-2.2862,-2.2865,-2.2868,-2.2864,0,0,0,0,0,0,-2.2099,-2.2125,-2.2155,-2.2233,-2.226,-2.238,-2.2369,-2.2381,-2.2422,-2.2423,-2.2501,-2.2512,-2.2546,-2.2635,-2.2653,-2.2686,-2.2645,-2.286,-2.2864,-2.2867,-2.2862,-2.2867,-2.2871,0,0,0,0,0,-2.209,-2.2148,-2.2156,-2.2178,-2.2299,-2.2382,-2.2398,-2.2435,-2.2424,-2.2454,-2.2499,-2.251,-2.267,-2.2643,-2.2664,-2.2699,-2.2858,-2.2863,-2.2867,-2.286,-2.2866,-2.2871,0,0,0,0,0,0,-2.2071,-2.2159,-2.2169,-2.2253,-2.231,-2.2386,-2.2426,-2.244,-2.2501,-2.2499,-2.2544,-2.2562,-2.2641,-2.2678,-2.2646,-2.2779,-2.2764,-2.2772,-2.2751,-2.2757,-2.2762,-2.275,-2.2651,0,0,0,0,0,-2.2077,-2.2137,-2.221,-2.2277,-2.2305,-2.2361,-2.2398,-2.2423,-2.2483,-2.2507,-2.2558,-2.2616,-2.268,-2.2721,-2.2783,-2.2868,-2.2886,-2.2903,-2.2907,-2.291,-2.2917,-2.2965,-2.2974,-2.2884,-2.2884,-2.2884,0,0,-2.2089,-2.2144,-2.2179,-2.2275,-2.2322,-2.2383,-2.2381,-2.2445,-2.2491,-2.2517,-2.2597,-2.2637,-2.2705,-2.2789,-2.2828,-2.2822,-2.2946,-2.2916,-2.2918,-2.2923,-2.2971,-2.2979,-2.2987,-2.2887,-2.2886,-2.2886,0,0,-2.2142,-2.219,-2.2252,-2.2299,-2.237,-2.2407,-2.2422,-2.2497,-2.2524,-2.2605,-2.2626,-2.2682,-2.2791,-2.2839,-2.2877,-2.2951,-2.2963,-2.297,-2.2993,-2.3039,-2.3047,-2.3053,-2.3079,-2.3088,-2.2977,-2.2977,-2.2977,0,-2.2148,-2.2241,-2.2282,-2.2346,-2.2388,-2.2415,-2.2478,-2.2522,-2.2609,-2.2638,-2.263,-2.2768,-2.2816,-2.2912,-2.293,-2.296,-2.2979,-2.2961,-2.3042,-2.3049,-2.3056,-2.3082,-2.3091,-2.2977,-2.2977,-2.2977,-2.2977,0,-2.2245,-2.231,-2.2351,-2.2436,-2.2482,-2.2546,-2.2596,-2.2638,-2.266,-2.2697,-2.278,-2.2839,-2.2914,-2.2939,-2.296,-2.3038,-2.3033,-2.3033,-2.3019,-2.3064,-2.3089,-2.3099,-2.2978,-2.2978,-2.2978,-2.2977,0,0,-2.2289,-2.2396,-2.2411,-2.245,-2.2531,-2.2582,-2.2647,-2.2721,-2.2756,-2.2817,-2.2873,-2.2965,-2.2967,-2.301,-2.3037,-2.3078,-2.3134,-2.3074,-2.3077,-2.3083,-2.3224,-2.3222,-2.3233,-2.3143,-2.3145,-2.3146,-2.3218,0,-2.2352,-2.2469,-2.2508,-2.2605,-2.2665,-2.2692,-2.2749,-2.2806,-2.2843,-2.29,-2.2942,-2.3007,-2.3004,-2.303,-2.3072,-2.3118,-2.3162,-2.3113,-2.3195,-2.3198,-2.3177,-2.3246,-2.3245,-2.3309,-2.3228,-2.323,-2.3231,0,-2.2441,-2.2502,-2.2605,-2.268,-2.2707,-2.2757,-2.2829,-2.2883,-2.2948,-2.2973,-2.3022,-2.3047,-2.3117,-2.3099,-2.3196,-2.3162,-2.3198,-2.3226,-2.3229,-2.3238,-2.3216,-2.3256,-2.3331,-2.334,-2.3247,-2.3246,-2.3244,0,-2.2462,-2.2571,-2.2647,-2.268,-2.2769,-2.2804,-2.2843,-2.2906,-2.2948,-2.3011,-2.3039,-2.3109,-2.3148,-2.3202,-2.3244,-2.3228,-2.3338,-2.3324,-2.3361,-2.3359,-2.3382,-2.3379,-2.3463,-2.3406,-2.3406,-2.3405,-2.3405,0,-2.2528,-2.259,-2.2658,-2.2705,-2.2775,-2.282,-2.2889,-2.293,-2.2986,-2.3042,-2.307,-2.3121,-2.3175,-2.3234,-2.3268,-2.3344,-2.3361,-2.3383,-2.3391,-2.338,-2.3377,-2.3404,-2.34,-2.3408,-2.3408,-2.3407,-2.3407,0,-2.2563,-2.2611,-2.2696,-2.2774,-2.2795,-2.2844,-2.2911,-2.2957,-2.2997,-2.3067,-2.3086,-2.3147,-2.3218,-2.3267,-2.3358,-2.3381,-2.3463,-2.347,-2.3441,-2.3444,-2.3478,-2.3474,-2.3581,-2.3598,-2.353,-2.353,-2.3531,0,-2.2601,-2.265,-2.2733,-2.2772,-2.2811,-2.2874,-2.2918,-2.2964,-2.3009,-2.3087,-2.3125,-2.3198,-2.3258,-2.337,-2.3424,-2.3494,-2.3503,-2.3536,-2.3514,-2.3501,-2.3504,-2.35,-2.3505,-2.3539,-2.3539,-2.354,-2.354,0,-2.2665,-2.2687,-2.2748,-2.2819,-2.287,-2.2928,-2.2985,-2.3016,-2.3073,-2.3121,-2.3194,-2.3242,-2.3335,-2.3407,-2.3482,-2.3523,-2.3541,-2.3547,-2.3559,-2.3548,-2.3528,-2.3539,-2.3449,-2.3544,-2.3543,-2.3543,-2.3543,-2.3543,-2.2703,-2.2748,-2.2813,-2.2881,-2.293,-2.2984,-2.3032,-2.3078,-2.3139,-2.3218,-2.3243,-2.3319,-2.3384,-2.3487,-2.3529,-2.359,-2.3587,-2.3604,-2.3609,-2.3612,-2.3612,-2.3519,-2.3604,-2.3603,-2.3603,-2.3603,-2.3603,0,-2.2768,-2.2812,-2.2874,-2.2954,-2.3008,-2.3021,-2.3086,-2.313,-2.3197,-2.3256,-2.3315,-2.34,-2.347,-2.353,-2.3603,-2.364,-2.3651,-2.3658,-2.3655,-2.3665,-2.361,-2.3592,-2.3648,-2.3648,-2.3648,-2.3648,-2.3648,-2.3648,-2.2808,-2.2884,-2.2914,-2.3015,-2.3059,-2.3133,-2.3169,-2.322,-2.3267,-2.336,-2.3419,-2.3457,-2.3517,-2.3595,-2.3661,-2.3677,-2.3702,-2.3708,-2.3725,-2.3673,-2.3668,-2.3663,-2.3647,-2.3713,-2.3713,-2.3774,-2.3775,-2.3775]},{"header":{"parameterUnit":"m.s-1","parameterCategory":1,"la1":30.2991,"la2":30.254,"lo1":-89.0895,"lo2":-89.0444,"dy":0.0017,"dx":0.0017,"nx":28,"ny":28,"refTime":"2024-04-29T21:00:00:Z","depth":0,"parameterNumber":3,"parameterNumberName":"V-component_of_WINDS"},"data":[0,0,0,0,0,0,0,0,0,0,0,0,0,0,0,0,0,0,0,0,0,0,0,0,0,0,0,0,0,0,0,0,0,0,0,0,0,0,0,0,0,0,0,0,0,0,0,0,0,0,0,0,0,0,0,0,0,0,1.9421,1.9424,0,1.967,1.9672,1.9675,1.977,1.977,1.9769,1.9768,2.0023,2.003,2.0037,0,0,0,0,0,0,0,0,0,0,0,0,0,1.9028,1.9035,1.9421,1.9424,1.9427,1.9669,1.9673,1.9676,1.9771,1.977,1.9769,1.9768,2.002,2.0029,2.0038,0,0,0,0,0,0,0,0,0,0,0,0,0,1.923,1.9037,1.942,1.9503,1.9513,1.9668,1.9673,1.9677,1.9771,1.977,1.9769,1.9768,2.0018,2.0028,2.0039,2.013,0,0,2.0074,2.0078,0,0,0,0,0,0,0,0,1.9218,1.9244,1.9488,1.9498,1.9509,1.9688,1.9628,1.9829,1.9771,1.9673,1.9768,1.9767,1.9912,1.9932,1.9981,2.0142,2.0153,2.0075,2.0081,2.0086,2.0089,0,0,0,0,0,0,0,1.9204,1.9234,1.9519,1.9491,1.9504,1.9528,1.9556,1.9666,1.9796,1.9681,1.9689,1.9717,1.9918,1.997,1.9988,2.0157,2.0074,2.0084,2.0091,2.0095,2.0406,2.0407,0,0,0,0,0,0,1.9176,1.9222,1.9511,1.9527,1.9358,1.9536,1.9567,1.9632,1.9795,1.9819,1.9718,1.9721,1.9951,1.9975,1.9997,2.0115,2.0086,2.0096,2.0103,2.0404,2.0406,2.0408,0,0,0,0,0,0,1.9167,1.9201,1.9501,1.9376,1.9416,1.9544,1.9616,1.9637,1.9689,1.9822,1.9846,1.9747,1.9952,1.9981,2.0097,2.0125,2.0102,2.0112,2.0403,2.0405,2.0407,2.035,0,0,0,0,0,0,1.9156,1.9197,1.9233,1.9376,1.9423,1.9596,1.9618,1.9643,1.9708,1.9715,1.9856,1.9879,1.9953,2.0079,2.0108,2.014,2.012,2.0401,2.0404,2.0406,2.035,2.0351,2.0351,0,0,0,0,0,1.9141,1.9207,1.9234,1.9269,1.947,1.9598,1.9624,1.9709,1.971,1.9747,1.9833,1.9874,2.0117,2.009,2.0123,2.0159,2.0399,2.0403,2.0406,2.035,2.035,2.0351,0,0,0,0,0,0,1.9063,1.9227,1.9259,1.9373,1.9471,1.9613,1.9663,1.9706,1.9805,1.9806,1.9907,1.9938,2.0045,2.0114,2.0081,2.0256,2.0261,2.0271,2.0207,2.0209,2.0209,2.019,2.013,0,0,0,0,0,1.9059,1.9149,1.9288,1.9375,1.9422,1.9534,1.9592,1.9649,1.9754,1.9796,1.989,1.999,2.009,2.0153,2.0252,2.0361,2.0394,2.0402,2.0402,2.0401,2.0409,2.0473,2.0479,2.0419,2.0419,2.0419,0,0,1.9052,1.9152,1.9203,1.9362,1.9444,1.9535,1.9568,1.9663,1.9732,1.9811,1.9925,1.9998,2.0117,2.0229,2.0284,2.029,2.0433,2.0406,2.0404,2.0413,2.0477,2.0483,2.0487,2.0422,2.0421,2.0421,0,0,1.9085,1.917,1.9252,1.9334,1.9459,1.9533,1.9552,1.9689,1.974,1.9857,1.9918,2.0002,2.0171,2.0253,2.0317,2.0383,2.0425,2.0412,2.0413,2.0474,2.0479,2.0483,2.0508,2.0515,2.0419,2.0419,2.0419,0,1.906,1.92,1.9289,1.9382,1.945,1.9525,1.961,1.9685,1.9835,1.988,1.9885,2.0099,2.0184,2.0318,2.0334,2.0383,2.0409,2.0396,2.0471,2.0476,2.0482,2.0506,2.0515,2.0417,2.0417,2.0417,2.0417,0,1.9164,1.926,1.9312,1.9455,1.9529,1.9616,1.9719,1.9783,1.9834,1.9907,2.0026,2.0131,2.0253,2.0288,2.0338,2.043,2.043,2.0451,2.0458,2.0484,2.0509,2.0518,2.0413,2.0414,2.0415,2.0415,0,0,1.9155,1.9347,1.9364,1.9431,1.9574,1.965,1.9741,1.9861,1.9914,2.0015,2.0095,2.0236,2.0257,2.033,2.039,2.0443,2.049,2.0459,2.0463,2.0462,2.0598,2.0582,2.0591,2.0518,2.0521,2.0522,2.0589,0,1.9208,1.9375,1.9457,1.9588,1.9679,1.9752,1.9832,1.9929,2.0,2.0088,2.0167,2.0266,2.0285,2.033,2.0386,2.0472,2.0519,2.0468,2.0594,2.0598,2.0563,2.0604,2.0586,2.0644,2.0599,2.06,2.0602,0,1.9292,1.9392,1.9532,1.9666,1.9707,1.9777,1.9894,1.9976,2.0087,2.0136,2.0217,2.0276,2.0375,2.0375,2.0514,2.0478,2.0535,2.0585,2.0589,2.0604,2.0601,2.0621,2.0664,2.0673,2.0618,2.0616,2.0615,0,1.9272,1.9442,1.9549,1.9603,1.9761,1.9809,1.9877,1.9987,2.0054,2.0156,2.02,2.0312,2.0374,2.0459,2.0547,2.0539,2.0679,2.0685,2.0722,2.072,2.0748,2.0746,2.0802,2.0783,2.0783,2.0783,2.0783,0,1.9322,1.9405,1.9542,1.9607,1.9702,1.9797,1.9889,1.9963,2.006,2.0142,2.0212,2.0287,2.0398,2.0487,2.0557,2.0662,2.0689,2.0732,2.0749,2.0726,2.072,2.0765,2.0763,2.0786,2.0785,2.0784,2.0784,0,1.9316,1.9411,1.9532,1.9672,1.9709,1.9773,1.9893,1.996,2.0034,2.0137,2.0166,2.0284,2.0393,2.0489,2.0632,2.0679,2.0787,2.0809,2.075,2.0759,2.0791,2.0787,2.0878,2.0896,2.0864,2.0864,2.0864,0,1.9343,1.9408,1.9555,1.9615,1.9682,1.9777,1.9845,1.9941,2.001,2.0142,2.0193,2.0307,2.0403,2.0573,2.0672,2.0783,2.0808,2.0832,2.0825,2.08,2.0809,2.0805,2.0812,2.0832,2.0832,2.0831,2.0831,0,1.938,1.9423,1.9519,1.9632,1.9712,1.9806,1.9901,1.9946,2.006,2.0134,2.0246,2.032,2.0467,2.058,2.0702,2.0773,2.0822,2.0833,2.0848,2.0825,2.0788,2.0809,2.0749,2.083,2.083,2.0831,2.0831,2.0831,1.9392,1.9454,1.9567,1.9672,1.9754,1.9842,1.9911,1.9995,2.009,2.0217,2.0268,2.0383,2.0494,2.0662,2.0733,2.0825,2.0833,2.0854,2.086,2.0863,2.086,2.0773,2.0847,2.0847,2.0848,2.0848,2.0848,0,1.9433,1.9509,1.9605,1.9737,1.9819,1.9858,1.9966,2.0033,2.0132,2.0232,2.0325,2.0454,2.0564,2.0671,2.0787,2.084,2.0865,2.0867,2.0864,2.088,2.0845,2.0821,2.0845,2.0845,2.0845,2.0844,2.0844,2.0844,1.9464,1.9571,1.9628,1.9778,1.9854,1.9966,2.0025,2.0107,2.0187,2.0328,2.0419,2.0489,2.0592,2.0716,2.0819,2.0848,2.0887,2.0883,2.0918,2.0883,2.0882,2.0882,2.086,2.0891,2.0891,2.0946,2.0947,2.0947]}]]